Vorticity
nan nan nan nan nan nan nan nan nan nan nan nan nan nan nan nan nan nan nan nan nan nan nan nan nan nan nan nan nan nan nan nan nan nan nan nan nan nan nan nan nan nan nan
nan 8 8 8 9 9 4 6 10 6 7 7 12 10 8 9 8 8 8 7 8 8 8 8 9 8 7 8 9 9 9 8 9 10 8 10 9 11 10 8 8 8 nan
nan 8 9 8 8 8 10 4 7 9 6 6 8 11 9 8 8 8 8 7 6 8 9 7 8 8 7 6 8 8 8 10 8 11 9 8 9 9 10 10 9 9 nan
nan 8 8 9 8 8 9 10 6 8 9 7 6 9 11 9 8 8 8 8 7 6 9 10 7 7 8 6 7 7 7 8 8 8 10 9 10 9 9 10 8 10 nan
nan 8 8 8 9 8 9 9 10 7 8 9 7 6 8 9 9 10 8 8 8 7 6 9 11 10 8 5 4 8 6 5 6 7 6 9 6 13 11 7 9 10 nan
nan 8 9 9 10 9 9 9 8 10 9 9 10 8 5 8 13 10 6 7 10 9 7 7 10 13 13 11 5 5 4 5 2 6 7 8 7 4 11 11 7 7 nan
nan 10 9 10 9 10 9 9 9 9 10 9 9 9 8 8 13 12 6 4 9 9 8 7 7 10 12 10 12 11 8 8 7 4 7 8 10 8 7 11 10 6 nan
nan 11 10 12 10 10 10 9 9 10 9 10 10 9 8 10 14 13 11 5 6 8 10 9 8 7 10 12 9 9 9 8 11 8 7 7 11 13 12 14 10 6 nan
nan 12 14 11 11 10 10 9 9 9 10 10 10 11 9 10 13 11 9 10 9 9 9 10 10 10 14 12 7 9 9 9 12 12 9 9 9 8 8 9 13 9 nan
nan 11 14 14 13 11 11 10 9 11 9 10 11 11 10 11 12 14 5 7 11 12 11 13 13 12 14 11 7 7 7 12 8 8 9 11 14 13 7 2 7 5 nan
nan 13 11 13 12 13 12 13 12 10 10 10 10 11 12 12 14 16 7 2 9 9 10 11 15 17 12 11 9 3 8 12 12 10 9 10 10 11 10 11 9 5 nan
nan 8 11 12 10 13 15 13 13 12 11 10 10 10 12 15 16 14 14 6 2 8 9 9 14 18 15 8 7 7 10 9 9 11 11 11 10 8 9 11 9 10 nan
nan 12 12 11 11 11 12 11 12 13 11 11 10 10 11 13 17 18 14 14 4 5 9 11 14 13 11 15 16 15 8 4 9 8 10 10 12 11 7 8 9 8 nan
nan 14 14 13 11 10 13 13 11 11 11 11 11 12 11 11 13 15 14 17 17 10 11 16 15 11 9 10 16 17 16 14 13 10 9 10 11 12 12 12 10 8 nan
nan 15 13 13 11 6 6 14 21 17 18 19 17 15 15 15 11 12 15 16 16 13 13 14 13 13 13 10 9 12 13 14 13 10 11 13 11 12 11 9 11 11 nan
nan 15 12 10 11 11 6 -0 8 16 18 17 22 21 16 13 11 13 10 10 18 19 13 13 13 12 12 13 11 10 10 11 10 11 13 11 11 13 9 8 17 14 nan
nan 14 14 13 13 12 11 7 0 1 6 8 9 11 15 10 10 11 12 14 17 15 11 14 14 13 13 13 14 12 10 11 12 15 18 18 17 21 23 17 7 6 nan
nan 15 18 15 13 16 14 15 13 11 5 2 6 9 7 11 11 11 16 15 9 8 12 12 11 12 14 13 12 12 13 13 11 12 13 16 19 17 26 26 14 10 nan
nan 17 14 12 12 12 12 16 15 13 11 11 10 10 7 6 8 8 13 14 11 11 11 10 9 10 10 11 12 13 13 12 13 11 10 8 11 11 10 15 15 12 nan
nan 12 11 10 9 9 10 10 10 11 10 9 10 12 11 8 8 8 10 10 10 9 9 9 9 11 11 11 11 12 14 14 11 9 10 13 11 13 15 13 11 11 nan
nan 13 12 9 12 12 12 12 12 10 12 11 9 11 12 10 11 8 7 9 9 8 10 9 11 12 11 12 12 11 10 12 13 14 14 14 13 14 13 10 12 11 nan
nan 12 12 12 13 13 12 12 14 13 14 13 11 9 10 14 13 12 10 9 10 11 11 11 10 12 13 14 13 12 12 12 13 13 14 13 12 12 10 8 10 11 nan
nan 17 17 13 11 12 11 12 12 11 10 11 14 15 12 13 13 13 14 14 12 13 13 11 11 13 13 13 14 13 13 13 12 11 11 10 11 10 11 12 13 12 nan
nan 15 13 12 11 10 10 11 9 11 12 11 11 11 11 13 11 12 15 16 18 18 16 13 11 12 11 11 11 12 12 8 10 12 11 10 11 11 11 13 15 14 nan
nan 10 11 13 12 10 10 11 12 11 11 11 11 11 11 9 9 10 10 12 14 13 13 17 19 18 13 11 9 8 9 18 18 11 12 14 13 12 10 12 13 11 nan
nan nan nan nan nan nan nan nan nan nan nan nan nan nan nan nan nan nan nan nan nan nan nan nan nan nan nan nan nan nan nan nan nan nan nan nan nan nan nan nan nan nan nan
CAPE
1881 1707 2049 1939 1493 1344 1674 685 1279 1418 1914 1427 2065 1883 2059 2167 2230 1962 2066 2157 2347 2094 1678 1552 1420 1135 210 2 59 46 0 0 0 0 25 4 77 145 19 0 38 31 0
2164 2135 2012 2288 2243 1531 1555 1830 666 1842 1559 2337 2498 2295 2425 2232 2186 2434 2226 2295 1837 2173 1948 1402 1542 1251 631 175 671 31 56 77 0 0 379 458 133 1 0 43 56 70 50
2289 2317 2333 2274 2472 2255 1877 1506 1998 1138 2229 1696 2512 2510 2412 2378 2350 2171 2480 2233 1749 2073 1937 1719 1356 1342 903 508 476 644 453 72 418 42 387 283 320 263 286 188 78 78 121
2261 2555 2623 2611 2561 2597 2486 2209 1459 2124 1854 2562 1876 2526 2354 2381 2299 2475 2363 2440 2145 1581 2137 1984 1641 1442 1238 786 302 343 470 505 363 393 43 92 408 565 149 191 235 321 180
2411 2678 2780 2873 2713 2691 2685 2796 2620 1922 2357 2079 2503 2211 2725 2320 2436 2349 2600 2503 2430 2188 1607 2355 2119 1682 1357 936 832 437 314 402 445 191 304 178 73 468 487 195 139 140 233
1912 2543 2829 2964 3034 2892 2968 2881 2979 2897 2310 2676 2260 2442 2560 2905 2554 2205 2397 2583 2638 2604 2453 1824 2393 1945 1423 907 954 796 557 188 142 615 161 251 277 112 263 248 215 172 226
1616 1881 2579 2907 3026 3118 3141 3190 3130 3210 3225 2702 2877 2593 2664 2759 2595 1600 1654 2604 2573 2734 2756 2669 2167 2383 1867 1629 507 722 495 556 95 55 423 171 162 182 270 107 103 22 0
1821 1887 1936 2721 2898 3012 3152 3162 3212 3198 3340 3465 3198 3173 3048 2945 2654 1121 963 2457 2681 2600 2777 2805 2751 2541 2450 2160 1782 985 855 659 400 88 25 122 179 147 342 301 112 35 20
2379 2480 2360 2690 2827 2990 3049 3247 3232 3220 3203 3321 3521 3427 3406 3352 2353 1310 410 2095 2701 2739 2762 2823 2897 2880 2670 1702 2214 1823 1250 948 621 263 209 143 177 746 438 317 114 6 0
2482 2850 3053 2941 3114 3060 3252 3280 3397 3349 3352 3329 3406 3510 3389 3477 3272 1096 351 2482 2685 2751 2744 2746 2526 2874 2949 1314 1951 2238 1826 1444 986 322 8 5 168 143 359 206 52 11 5
2430 2494 3176 3166 3296 3415 3288 3502 3511 3547 3522 3540 3519 3542 3632 3515 3516 2021 179 2487 3002 2972 2813 2684 2610 1944 1125 974 599 2479 2281 2001 1216 642 426 225 74 89 110 158 94 85 10
2415 2678 2685 3384 2941 3329 3483 3624 3728 3697 3699 3624 3694 3758 3719 3717 3362 2844 358 261 2961 3174 3195 3011 2676 2295 1415 394 0 1145 1426 1273 1734 825 650 392 141 47 19 111 78 47 7
2624 3080 3038 2947 3478 2683 3754 3584 3939 3834 3896 3863 3863 3886 3878 3817 3798 3391 1436 0 37 2011 3348 3409 3195 2583 1417 35 1 197 14 846 1945 1714 922 723 258 147 20 0 2 30 4
3249 3151 3842 3782 3978 3362 3675 3864 4049 4173 4088 4025 3970 3935 3744 3621 3691 3609 1991 9 1 2 1291 1934 2060 1798 2038 832 0 0 0 940 1826 2048 1829 1245 503 112 67 28 9 0 5
3497 4397 4459 4042 3982 3949 2094 1732 3467 3792 3627 3996 3971 3762 3763 3670 2437 312 437 1794 867 464 920 1225 2105 2333 2120 2100 294 180 2 59 787 1444 1631 1452 687 75 20 39 62 2 2
4187 4372 4356 3892 3845 3990 1332 0 1 0 0 0 0 2382 0 0 2 2 1 112 50 226 53 1181 1756 2236 2656 2640 2431 2242 249 113 370 900 1275 1550 968 179 54 1 46 36 2
2098 3855 3558 3513 3425 3728 3911 2625 9 0 0 0 0 0 0 0 1 2 2 2 1 0 681 1337 1467 1838 2311 2032 1609 1226 937 694 460 516 935 1096 1056 471 30 50 0 5 16
1483 1139 1974 2944 2453 3308 3323 3495 736 1 3 0 0 0 2 2 2 2 2 1 0 1 1 42 34 138 496 555 461 475 394 288 366 234 7 2 2 1 1 2 1 52 93
1823 1476 650 628 660 654 588 577 836 661 173 0 0 0 1 2 2 2 0 0 0 0 0 0 0 0 0 0 0 0 0 0 0 0 0 0 0 0 0 0 50 49 4
925 416 612 441 406 169 156 89 32 0 0 0 0 0 0 0 0 0 0 0 0 0 0 0 0 0 0 0 0 0 1 1 1 0 0 0 1 0 1 1 3 2 0
634 395 794 862 319 82 0 0 0 6 1 0 0 0 0 0 0 0 0 0 0 0 0 0 0 0 0 0 0 0 1 0 14 18 23 1 1 1 1 0 0 0 0
472 602 323 22 1 76 0 0 0 0 0 0 0 0 0 0 0 0 0 0 0 0 0 0 0 0 0 0 0 1 2 1 10 6 1 0 0 1 0 0 0 0 0
53 2 32 0 0 0 0 0 0 0 0 0 1 3 6 6 4 0 0 0 0 0 1 0 0 0 0 0 0 0 0 1 0 0 0 1 0 0 0 0 0 0 0
0 0 0 0 0 0 0 0 0 0 0 0 0 0 0 0 0 0 0 0 2 1 0 0 0 0 0 0 0 0 0 0 0 0 0 0 2 0 0 0 0 0 0
0 0 0 0 0 0 0 0 0 0 0 0 0 0 0 0 0 0 0 0 0 0 0 0 0 0 0 0 0 0 0 0 0 2 0 1 0 0 0 0 0 0 0
0 0 0 0 0 0 0 0 0 0 1 3 1 2 2 2 1 0 0 0 0 0 0 0 0 0 0 0 0 0 0 0 0 0 0 0 0 0 0 0 0 0 0